| time (UTC) | temp F | wind direction | speed MPH | gust MPH | rain 1hr in | rain 24hr in | rain mn in | humidity % | barometer mb |
| 20260506232154 | 57 | 207 | 0.0 | 0.0 | 0.00 | 0.00 | 0.00 | 84 | 1028.4 |
| 20260506225154 | 57 | 211 | 1.0 | 1.0 | 0.00 | 0.00 | 0.00 | 83 | 1028.4 |
| 20260506222150 | 56 | 210 | 0.0 | 0.0 | 0.00 | 0.00 | 0.00 | 86 | 1028.7 |
| 20260506215148 | 56 | 211 | 0.0 | 0.0 | 0.00 | 0.00 | 0.00 | 85 | 1028.7 |
| 20260506212147 | 56 | 211 | 1.0 | 1.0 | 0.00 | 0.00 | 0.00 | 86 | 1028.5 |
| 20260506205143 | 55 | 199 | 0.0 | 0.0 | 0.00 | 0.00 | 0.00 | 88 | 1028.7 |
| 20260506202138 | 55 | 210 | 0.0 | 0.0 | 0.00 | 0.00 | 0.00 | 89 | 1028.5 |
| 20260506195137 | 54 | 209 | 0.0 | 0.0 | 0.00 | 0.00 | 0.00 | 91 | 1028.5 |
| 20260506192136 | 55 | 209 | 0.0 | 0.0 | 0.00 | 0.00 | 0.00 | 94 | 1028.3 |
| 20260506185134 | 54 | 209 | 0.0 | 0.0 | 0.00 | 0.00 | 0.00 | 95 | 1028.2 |
| 20260506182133 | 54 | 213 | 1.0 | 1.0 | 0.00 | 0.00 | 0.00 | 97 | 1028.1 |
| 20260506175131 | 53 | 204 | 0.0 | 0.0 | 0.00 | 0.00 | 0.00 | 99 | 1027.7 |
| 20260506172126 | 53 | 208 | 0.0 | 0.0 | 0.00 | 0.00 | 0.00 | 99 | 1028.2 |
| 20260506165122 | 53 | 209 | 0.0 | 0.0 | 0.00 | 0.00 | 0.00 | 99 | 1027.8 |
| 20260506162117 | 53 | 191 | 0.0 | 0.0 | 0.00 | 0.00 | 0.00 | 99 | 1027.3 |
| 20260506155116 | 53 | 193 | 0.0 | 0.0 | 0.00 | 0.00 | 0.00 | 99 | 1027.7 |
| 20260506151850 | 53 | 192 | 0.0 | 0.0 | 0.00 | 0.00 | 0.00 | 99 | 1027.7 |
| 20260506144849 | 53 | 192 | 0.0 | 0.0 | 0.00 | 0.00 | 0.00 | 99 | 1027.5 |
| 20260506141846 | 52 | 190 | 1.0 | 1.0 | 0.00 | 0.00 | 0.00 | 99 | 1027.1 |
| 20260506134846 | 53 | 186 | 1.0 | 1.0 | 0.00 | 0.00 | 0.00 | 99 | 1027.0 |
| 20260506131845 | 53 | 196 | 0.0 | 0.0 | 0.00 | 0.00 | 0.00 | 99 | 1026.7 |
| 20260506124841 | 53 | 193 | 0.0 | 1.0 | 0.00 | 0.00 | 0.00 | 98 | 1026.9 |
| 20260506121837 | 53 | 194 | 0.0 | 0.0 | 0.00 | 0.00 | 0.00 | 97 | 1026.4 |
| 20260506114833 | 53 | 195 | 0.0 | 0.0 | 0.00 | 0.00 | 0.00 | 96 | 1026.3 |
| 20260506111829 | 53 | 203 | 0.0 | 0.0 | 0.00 | 0.00 | 0.00 | 95 | 1026.3 |
| 20260506104829 | 53 | 208 | 0.0 | 0.0 | 0.00 | 0.00 | 0.00 | 94 | 1026.0 |
| 20260506101825 | 53 | 206 | 0.0 | 0.0 | 0.00 | 0.00 | 0.00 | 93 | 1026.0 |
| 20260506094820 | 54 | 208 | 0.0 | 1.0 | 0.00 | 0.00 | 0.00 | 94 | 1025.7 |
| 20260506091818 | 54 | 206 | 0.0 | 0.0 | 0.00 | 0.00 | 0.00 | 94 | 1025.1 |
| 20260506084817 | 54 | 204 | 0.0 | 0.0 | 0.00 | 0.00 | 0.00 | 94 | 1025.1 |
| 20260506081816 | 54 | 189 | 0.0 | 1.0 | 0.00 | 0.00 | 0.00 | 93 | 1025.1 |
| 20260506071807 | 53 | 199 | 0.0 | 0.0 | 0.00 | 0.00 | 0.00 | 97 | 1024.9 |
| 20260506061807 | 54 | 208 | 0.0 | 0.0 | 0.00 | 0.00 | 0.00 | 94 | 1023.9 |
| 20260506044758 | 56 | 197 | 0.0 | 1.0 | 0.00 | 0.00 | 0.00 | 93 | 1023.3 |
| 20260506041756 | 58 | 201 | 0.0 | 0.0 | 0.00 | 0.00 | 0.00 | 89 | 1023.4 |
| 20260506034756 | 58 | 207 | 0.0 | 0.0 | 0.00 | 0.00 | 0.00 | 88 | 1023.2 |
| 20260506031755 | 59 | 197 | 0.0 | 0.0 | 0.00 | 0.00 | 0.00 | 85 | 1022.6 |
| 20260506024755 | 60 | 207 | 0.0 | 0.0 | 0.00 | 0.00 | 0.00 | 84 | 1022.6 |
| 20260506021755 | 62 | 206 | 0.0 | 0.0 | 0.00 | 0.00 | 0.00 | 82 | 1022.6 |
| 20260506014754 | 64 | 210 | 0.0 | 0.0 | 0.00 | 0.00 | 0.00 | 77 | 1022.1 |
| 20260506011753 | 64 | 207 | 0.0 | 0.0 | 0.00 | 0.00 | 0.00 | 77 | 1022.3 |
| 20260506004752 | 63 | 201 | 1.0 | 1.0 | 0.00 | 0.00 | 0.00 | 77 | 1022.9 |
| 20260506001748 | 64 | 216 | 0.0 | 1.0 | 0.00 | 0.00 | 0.00 | 76 | 1022.9 |
| 20260505234743 | 63 | 65 | 0.0 | 1.0 | 0.00 | 0.00 | 0.00 | 75 | 1023.2 |